Regional Weather Roundup
Issued by NWS

Home | Current Version | Previous Version | Graphics & Text | Print | Product List | Glossary On
Versions: 1 2 3 4 5 6 7 8 9 10 11 12 13 14 15 16 17 18 19 20 21 22 23 24 25 26 27 28 29 30 31 32 33 34 35 36 37 38 39 40 41 42 43 44 45 46 47 48 49 50
000
ASUS45 KBOU 270707
RWRCO

WEATHER ROUNDUP FOR COLORADO
NATIONAL WEATHER SERVICE DENVER/BOULDER CO
1200 AM MST FRI FEB 27 2015

NOTE: "FAIR" INDICATES FEW OR NO CLOUDS BELOW 12000 FEET WITH NO
SIGNIFICANT WEATHER AND/OR OBSTRUCTIONS TO VISIBILITY.

COZ001>005-013-030-031-270800-
...NORTHWEST COLORADO...

CITY           SKY/WX    TMP DP  RH WIND       PRES   REMARKS
CRAIG            N/A     20  18  92 SW3       29.86F
HAYDEN         MOCLDY    19  18  93 W3        29.84S
MEEKER         LGT SNOW  24  22  91 CALM      29.84S FOG
MOUNT WERNER   NOT AVBL
STEAMBOAT SPGS CLOUDY    18  14  86 CALM      29.83S
WALDEN         CLOUDY     9   3  78 CALM      29.81F
$$

COZ006>008-011-270800-
...WEST CENTRAL VALLEYS...

CITY           SKY/WX    TMP DP  RH WIND       PRES   REMARKS
GRAND JUNCTION CLOUDY    34  25  69 CALM      29.84S
MONTROSE       CLOUDY    28  22  78 SE6       29.86F WCI  22
EAGLE          CLOUDY    27  25  93 W3        29.82F
RIFLE          LGT SNOW  30  28  92 CALM      29.83F FOG
DELTA          CLOUDY    34  28  78 NE6       29.85S WCI  29
NUCLA          CLOUDY    30  25  80 S3        29.88F
$$

COZ017>023-064>068-270800-
...SOUTHWEST COLORADO...

CITY           SKY/WX    TMP DP  RH WIND       PRES   REMARKS
DURANGO        FLURRIES  27  26  96 CALM      29.81F
CORTEZ         FOG       26  25  96 NE5       29.85S VSB 1/4 WCI  20
PAGOSA SPRINGS LGT SNOW  27  27 100 CALM      29.80F
TELLURIDE      LGT SNOW  20  19  96 W5        29.80F WCI  14
WOLF CREEK PAS SNOW      10  10 100 SW22G31   29.76F VSB 1/2 WCI  -9
$$

COZ009-010-012-014-032>034-037-058>063-270800-
...CENTRAL COLORADO...

CITY           SKY/WX    TMP DP  RH WIND       PRES   REMARKS
ASPEN          CLOUDY    19  16  88 CALM      29.77F
BUENA VISTA    LGT SNOW   6   2  84 SE8       29.92F WCI  -7
COPPER MTN     LGT SNOW  12   5  73 W15G21    29.69F WCI  -4
BERTHOUD PASS  SNOW       1  -4  78 NW13      29.67F VSB 1/2 WCI -16
COTTONWOOD PAS LGT SNOW   5   0  78 CALM      29.80F
GUNNISON       PTCLDY    16  10  79 CALM      29.83F
KREMMLING      CLOUDY    18  10  73 N6        29.83S WCI   9
LEADVILLE      MIX PCPN  -2  -5  87 S10       29.77S FOG     WCI -19
MONARCH PASS   CLOUDY     9   5  85 MISG      29.81F
SALIDA         CLOUDY     8   4  81 E8        30.02F WCI  -4
SUNLIGHT       LGT SNOW  16  12  86 CALM      29.70  VSB 3/4
WILKERSON PASS PTCLDY    -6  -9  84 SW5       29.74F WCI -17
$$

COZ069>075-270800-
...SAN LUIS VALLEY/SANGRE DE CRISTO MOUNTAINS...

CITY           SKY/WX    TMP DP  RH WIND       PRES   REMARKS
ALAMOSA        LGT SNOW  21  17  84 CALM      29.82S FOG
LA VETA PASS   LGT SNOW  -2  -6  84 N9        29.78F VSB 3/4 WCI -18
SAGUACHE       LGT SNOW  23  21  93 CALM      29.81F
$$

COZ035-036-038>040-270800-
...NORTHERN COLORADO FRONT RANGE...

CITY           SKY/WX    TMP DP  RH WIND       PRES   REMARKS
DENVER INTL AP LGT SNOW  11   7  84 S16       30.06F VSB 1   WCI  -6
DMNS CITY PARK   N/A     11   9  89 W7        30.07F WCI   1
AURORA         FLURRIES  10   4  76 S16       30.06F WCI  -8
FRONT RANGE AP NOT AVBL
ERIE MUNI ARPT LGT SNOW   8   6  91 NW6       30.09F WCI  -2
BOULDER MUN AP FLURRIES  10   9  92 NW5       30.09F WCI   2
CENTENNIAL     LGT SNOW   8   2  76 S8        30.04F FOG     WCI  -4
BROOMFIELD     CLOUDY    10   9  92 NW12      30.06S FOG     WCI  -4
FORT COLLINS   PTCLDY    10   9  92 E5        30.13F WCI   2
LONGMONT       LGT SNOW  14  10  84 N7        30.13F WCI   3
$$

COZ041-046-047-076>085-087-088-270800-
...PIKES PEAK/PALMER DIVIDE AND SOUTHERN FOOTHILLS...

CITY           SKY/WX    TMP DP  RH WIND       PRES   REMARKS
COLO. SPRINGS  LGT SNOW   8   6  92 SE10      30.07F VSB 3/4 WCI  -6
A. F. ACADEMY  FLURRIES   7   2  82 S10       30.02F WCI  -8
ELLICOTT       NOT AVBL
FALCON         LGT SNOW   5   2  86 S8        30.02F WCI  -8
FORT CARSON    NOT AVBL
LIMON          LGT SNOW   8   5  87 SE15      30.13F FOG     WCI  -9
MONUMENT HILL  CLOUDY     3   0  85 S14       29.97F WCI -15
TRINIDAD       LGT SNOW  11   7  84 NW12      30.06F VSB 1   WCI  -3
$$

COZ042>045-048>051-090-091-270800-
...NORTHEAST COLORADO...

CITY           SKY/WX    TMP DP  RH WIND       PRES   REMARKS
GREELEY ARPT   MOCLDY    12   5  73 E16G22    30.13F WCI  -4
AKRON          LGT SNOW   9   6  88 E14       30.19F VSB 3/4 WCI  -7
BURLINGTON     LGT SNOW  13   8  81 SE12      30.25F WCI  -1
WRAY           CLOUDY    14   3  61 E12       30.31F WCI   0
STERLING       LGT SNOW  12   9  85 E9        30.25F WCI   0
HOLYOKE        NOT AVBL
FORT MORGAN    LGT SNOW  13   9  86 SE10      30.19F WCI   0
$$

COZ086-089-092>099-270800-
...SOUTHEAST COLORADO...

CITY           SKY/WX    TMP DP  RH WIND       PRES   REMARKS
PUEBLO         LGT SNOW  13  11  92 E7        30.16F FOG     WCI   3
LA JUNTA       LGT SNOW  15  11  83 E17       30.20F FOG     WCI  -1
LAMAR          CLOUDY    15  11  83 SE9       30.26F WCI   3
SPRINGFIELD      N/A     12  10  92 SE12      30.21F WCI  -2
$$


USA.gov is the U.S. government's official web portal to all federal, state and local government web resources and services.